Jackson, MI

5:22 AM EDT on September 21, 2017 (GMT -0400)
Jackson County-Reynolds

Weather History for KJXN - June, 2012

Change the Weather History Date:

Monday, June 25, 2012

  Actual Average Record
Temperature  
Mean Temperature 64 °F 70 °F  
Max Temperature 75 °F 81 °F 100 °F (1988)
Min Temperature 53 °F 59 °F 37 °F (1979)
Degree Days  
Heating Degree Days 1 1  
Month to date heating degree days 51  
Since 1 June heating degree days 51  
Since 1 July heating degree days 6653  
Cooling Degree Days 0 6  
Month to date cooling degree days 96  
Year to date cooling degree days 133  
Since 1 June cooling degree days 96  
Growing Degree Days 15 (Base 50)    
Moisture  
Dew Point 50 °F    
Average Humidity 58    
Maximum Humidity 80    
Minimum Humidity 35    
Precipitation  
Precipitation 0.00 in 0.11 in 2.60 in (1968)
Month to date precipitation 2.24 2.73  
Year to date precipitation 13.33  
Sea Level Pressure  
Sea Level Pressure 30.02 in    
Wind  
Wind Speed 7 mph (North)    
Max Wind Speed 16 mph    
Max Gust Speed 24 mph    
Visibility 10 miles    
Events      
T = Trace of Precipitation, MM = Missing Value Source: NWS Daily Summary

Daily Weather History Graph

Daily Weather History Graph

Search for Another Location

Airport or City:

Trip Planner

Search our weather history database for the weather conditions in past years. The results will help you decide how hot, cold, wet, or windy it might be!

Date:

Astronomy

Jun. 25, 2012 Rise Set
Actual Time 6:02 AM EDT 9:18 PM EDT
Civil Twilight 5:28 AM EDT 9:53 PM EDT
Nautical Twilight 4:43 AM EDT 10:37 PM EDT
Astronomical Twilight 3:48 AM EDT 11:32 PM EDT
Moon 12:19 PM EDT (6/25) 12:09 AM EDT (6/25)
Length of Visible Light 16h 25m
Length of Day
15h 15m
Waxing Crescent, 34% of the Moon is Illuminated
Jun 25
Waxing Crescent
Jun 26
First Quarter
Jul 3
Full
Jul 10
Last Quarter
Jul 19
New

Hourly Weather History & Observations

Time (EDT) Temp. Dew Point Humidity Pressure Visibility Wind Dir Wind Speed Gust Speed Precip Events Conditions
12:56 AM 70.0 °F 60.1 °F 71% 29.94 in 10.0 mi North 6.9 mph - N/A   Clear
1:56 AM 66.9 °F 57.9 °F 73% 29.95 in 10.0 mi North 5.8 mph - N/A   Clear
2:56 AM 64.9 °F 57.0 °F 75% 29.95 in 10.0 mi North 8.1 mph - N/A   Partly Cloudy
3:15 AM 64.4 °F 57.2 °F 77% 29.97 in 10.0 mi North 9.2 mph 17.3 mph N/A   Mostly Cloudy
3:37 AM 64.4 °F 55.4 °F 73% 29.98 in 10.0 mi North 10.4 mph - N/A   Scattered Clouds
3:56 AM 63.0 °F 55.0 °F 75% 29.97 in 10.0 mi North 8.1 mph 18.4 mph N/A   Mostly Cloudy
4:21 AM 62.6 °F 53.6 °F 72% 29.99 in 10.0 mi North 8.1 mph 16.1 mph N/A   Scattered Clouds
4:56 AM 61.0 °F 53.1 °F 75% 29.98 in 10.0 mi North 5.8 mph - N/A   Mostly Cloudy
5:36 AM 57.2 °F 50.0 °F 77% 30.01 in 10.0 mi North 5.8 mph - N/A   Scattered Clouds
5:56 AM 57.0 °F 51.1 °F 81% 30.01 in 10.0 mi North 6.9 mph - N/A   Clear
6:56 AM 57.0 °F 50.0 °F 77% 30.03 in 10.0 mi North 5.8 mph - N/A   Clear
7:56 AM 59.0 °F 48.9 °F 69% 30.05 in 10.0 mi North 4.6 mph 16.1 mph N/A   Clear
8:56 AM 62.1 °F 52.0 °F 70% 30.06 in 10.0 mi NNE 8.1 mph - N/A   Clear
9:56 AM 66.0 °F 53.1 °F 63% 30.05 in 10.0 mi North 11.5 mph 18.4 mph N/A   Partly Cloudy
10:56 AM 68.0 °F 53.1 °F 59% 30.06 in 10.0 mi NNE 10.4 mph - N/A   Scattered Clouds
11:56 AM 70.0 °F 48.9 °F 47% 30.05 in 10.0 mi NNE 10.4 mph 20.7 mph N/A   Partly Cloudy
12:56 PM 71.1 °F 48.0 °F 44% 30.05 in 10.0 mi North 10.4 mph 24.2 mph N/A   Scattered Clouds
1:56 PM 71.1 °F 46.9 °F 42% 30.05 in 10.0 mi NNE 12.7 mph 20.7 mph N/A   Partly Cloudy
2:56 PM 73.0 °F 46.0 °F 38% 30.05 in 10.0 mi NNE 6.9 mph 18.4 mph N/A   Clear
3:56 PM 73.9 °F 45.0 °F 35% 30.04 in 10.0 mi NNE 13.8 mph 17.3 mph N/A   Clear
4:56 PM 73.0 °F 45.0 °F 37% 30.04 in 10.0 mi NNE 8.1 mph 16.1 mph N/A   Clear
5:56 PM 73.0 °F 46.0 °F 38% 30.03 in 10.0 mi NNE 6.9 mph - N/A   Clear
6:56 PM 70.0 °F 46.0 °F 42% 30.04 in 10.0 mi NNE 8.1 mph - N/A   Clear
7:56 PM 70.0 °F 45.0 °F 41% 30.04 in 10.0 mi NNE 4.6 mph - N/A   Partly Cloudy
8:56 PM 66.9 °F 45.0 °F 45% 30.03 in 10.0 mi ENE 4.6 mph - N/A   Clear
9:56 PM 64.0 °F 45.0 °F 50% 30.03 in 10.0 mi Calm Calm - N/A   Partly Cloudy
10:56 PM 57.0 °F 48.0 °F 72% 30.04 in 10.0 mi Calm Calm - N/A   Clear